星链-37334(STARLINK-37334)

导读

STARLINK-37334(NORAD编号68700)是美国SpaceX公司星链(Starlink)星座中的一颗低轨互联网通信卫星。作为星链计划的组成部分,它运行于近地轨道,属于星座批量部署的卫星之一,主要承担为全球覆盖区域提供高速宽带互联网接入服务的任务,尤其服务于传统网络覆盖不足的偏远地区。星链星座是目前全球规模最大的低轨卫星互联网项目,这颗卫星与其他数千颗星链卫星共同组网,支撑天基通信系统的运行,助力实现全球无缝互联的建设目标。

基本信息
目录编号:
68700
目录名称:
STARLINK-37334
国际标识:
2026-081B
轨道中心:
EARTH
卫星名称:
星链-37334
卫星全名:
星链-37334(STARLINK-37334)
卫星状态:
在轨 (已飞行150 天)
发射日期:
2026-04-14 UTC
国别 :
美国 (US)
星等 :
--
该卫星已列入 空间交会检测服务 Space Conjunction Data Service (SCDS) ,当前飞行风险评估等级: 无高风险
轨道信息
数据来源 国际轨道数据
星历时间: 2026-09-11T15:31:30+0800
8小时前
查看轨道信息
半长轴: 6840.82km
偏心率: 0.0001379
轨道倾角: 53.158°
近地点辐角 74.886°
升交点赤经 248.984°
平近点角 285.230°
近地点: 461.739km
远地点: 463.627km
周期: 93.847分钟
每日圈数: 15.34407
详细信息
固有亮度:
5
最大亮度:
2.5
卫星平台:
Starlink V1.0
覆盖范围:
全球
运营商:
太空探索技术公司
运营商所在国:
美国
制造商(研发单位):
太空探索技术公司
制造商所在国:
美国
使用方式:
暂无
卫星简介
Starlink 计划是 SpaceX 推出的全球卫星互联网项目,通过发射低轨道卫星,为全球尤其是偏远地区提供高速、低延迟的互联网服务。自 2019 年起,Starlink 已部署数千颗卫星,旨在缩小全球数字鸿沟,推动互联网普及。该项目还为军事、航空等行业提供通信支持,带来广泛经济效益。
2D轨道图
3D轨道图
轨道高度分析图
轨道倾角分析图
轨道综合分析图
查看轨道综合分析图
交会数据列表
事件ID 空间交会对象 最接近时刻(TCA) 交会距离 交会风险概率(CRP) 交会风险指数(CRI) 操作
CDM_260913-193705-314106-870021
2026-09-13T
19:37:39+0000
0.741 km
远距离
6.273363E-5 中风险 0.71
CDM_260913-211105-314106-870021
2026-09-13T
21:11:27+0000
1.094 km
极远距离
1.712213E-5 中风险 0.6
CDM_260913-223006-005606-870021
2026-09-13T
22:30:17+0000
1.098 km
极远距离
8.860735E-6 低风险 0.54
CDM_260913-213306-014406-870021
2026-09-13T
21:33:21+0000
1.204 km
极远距离
8.711219E-6 低风险 0.54
CDM_260913-195906-014406-870021
2026-09-13T
19:59:34+0000
1.549 km
极远距离
3.779466E-6 低风险 0.47
CDM_260914-000406-005606-870021
2026-09-14T
00:04:04+0000
1.479 km
极远距离
3.286506E-6 低风险 0.45
CDM_260913-224505-314106-870021
2026-09-13T
22:45:14+0000
2.806 km
极远距离
1.293011E-6 低风险 0.37
CDM_260912-160005-199306-870021
2026-09-12T
16:00:01+0000
2.941 km
极远距离
5.860757E-7 极低风险 0.3
与全量物体交会距离演化趋势
与全量物体交会风险概率演化趋势